Location: Alpine
(43.1636°N, 111.0180°W)
Time: 04:25:19
(UTC+00:00)

Tiros 1 despin weight - Pass Details

Date: 04 June 2022
Orbit: 591 x 639 km, 48.2° (Epoch: 30 June)

Event Time Altitude Azimuth Distance (km) Brightness Sun altitude
Rises 05:24:26 0° 282° (WNW) 2,846 ? -19.0°
Reaches altitude 10° 05:28:02 10° 252° (WSW) 1,928 ? -19.3°
Maximum altitude 05:29:49 12° 228° (SW) 1,776 ? -19.5°
Enters shadow 05:30:08 12° 223° (SW) 1,779 ? -19.5°
Drops below altitude 10° 05:31:35 10° 204° (SSW) 1,916 - -19.6°
Sets 05:35:08 0° 174° (S) 2,806 - -19.9°
